Location: Home
(42.5358°N, 72.7383°W)
Time: 12:43:13
(UTC-05:00)

Transit 4A - Pass Details

Date: 07 December 2021
Orbit: 864 x 981 km, 66.8° (Epoch: 19 January)

Event Time Altitude Azimuth Distance (km) Brightness Sun altitude
Rises 17:11:13 0° 178° (S) 3,440 11.2 -9.7°
Reaches altitude 10° 17:13:55 10° 168° (SSE) 2,518 10.3 -10.1°
Maximum altitude 17:18:55 30° 108° (ESE) 1,530 8.7 -11.0°
Enters shadow 17:23:03 14° 55° (NE) 2,286 9.3 -11.7°
Drops below altitude 10° 17:24:02 10° 50° (NE) 2,589 - -11.9°
Sets 17:26:50 0° 40° (NE) 3,555 - -12.4°
